Tracking 35048 objects as of 19-Aug-2026
HD Live streaming from Space Station
objects crossing your sky now

PROGRESS MS-17


PROGRESS MS-17 is no longer on orbit
PROGRESS MS-17 is classified as:


NORAD ID: 48869
Int'l Code: 2021-057A
Launch date: June 29, 2021
Source: Commonwealth of Independent States (former USSR) (CIS)
Launch site: TYURATAM MISSILE AND SPACE COMPLEX (TTMTR)
Decay date: 2021-11-25
Your satellite tracking list
Your tracking list is empty




NASA's NSSDC Master Catalog

Two Line Element Set (TLE):
1 48869U 21057A   21328.32650273  .00003477  00000-0  72139-4 0  9991
2 48869  51.6442 270.8942 0004353 236.2486 259.6363 15.48634118313414
Source of the keplerian elements: AFSPC